Погода в Заборье

Россия / Санкт-Петербург и Ленинградская область     59°31′01″N   35°13′30″E
темп.,
°C
ветер,
м/с
пор.,
м/с
влажн.,
%
обл.,
%
осадки,
мм/ч
давл.,
гПа
погр.,
м
6 августа, пт
пт600:00+12св3899100 4.2 1015363
03:00+12св51298100 14.5 1013705
06:00+12св4998100 4.7 1013577
09:00+12всв4899100 6.1 1013504
12:00+13всв3798100 0.3 1014456
15:00+13всв4796100 0.3 1014385
18:00+13всв4994100 0.0 1013381
21:00+13всв41094100 0.0 1013388
7 августа, сб
сб700:00+13всв41197100 0.0 1013411
03:00+13всв41096100 0.0 1013480
06:00+13всв41096100 0.0 1012510
09:00+14в41299100 3.6 1011737
12:00+15в61498100 9.2 1011806
15:00+15в51298100 14.2 1011920
18:00+15в51398100 0.5 1010765
21:00+16в41199100 0.5 1010509
8 августа, вс
вс800:00+16в31099100 1.6 1010571
03:00+16в3799100 3.1 1010374
06:00+17юв2599100 0.2 1010247
09:00+18юз249174 0.3 1011472
12:00+21ююз237121 0.9 1011952
15:00+19зюз3679100 1.9 1013367
18:00+20зюз357168 0.1 1013663
21:00+15юз229510 0.2 101529
9 августа, пн
пн900:00+14зюз1197100 0.0 101617
03:00+13юз1196100 0.0 101614
06:00+14ююз1294100 0.0 101766
09:00+19ю237145 0.0 1017437
12:00+24ю34525 0.0 10161313
15:00+27ю354667 0.0 10161647
18:00+23ю2764100 0.0 1016208
21:00+19ю2287100 0.6 101738
10 августа, вт
вт1000:00+17з2497100 0.0 101795
03:00+16з2296100 0.0 101847
06:00+16з139599 0.0 101898
09:00+20з127199 0.0 1019476
12:00+25з12484 0.0 10181536
15:00+27ююз124062 0.0 10182248
18:00+23ссв125884 0.0 1017180
21:00+20вюв227169 0.0 101753